Location: Wapato
(46.4478°N, 120.4212°W)
Time: 23:07:26
(UTC+00:00)

Vanguard 1 Rocket - Pass Details

Date: 11 May 2026
Orbit: 656 x 4211 km, 34.3° (Epoch: 7 June)

Event Time Altitude Azimuth Distance (km) Brightness Sun altitude
Rises 06:15:36 0° 279° (W) 7,074 12.4 -21.6°
Reaches altitude 10° 06:20:34 10° 271° (W) 6,467 12.0 -22.0°
Maximum altitude 06:39:03 33° 217° (SW) 5,595 11.1 -23.2°
Enters shadow 06:50:02 25° 183° (S) 6,146 11.0 -23.8°
